This demonstration page uses our WeatherBlox Daily Observations layout. Learn more.

Hourly Observations for June 4, 2017

Temp ( °F °C ) Dew Point ( °F °C ) Humidity (%) Winds ( mph kmh ) Pressure ( in mb ) Visibility ( mi km ) Precip ( " mm )
12:54 am 00:54 Clear 71 21.7 63 17.2 76 76 Calm 29.93 1014 10 16.0934 0 0
1:54 am 01:54 Clear 72 22.2 63 17.2 73 73 Calm 29.93 1013 10 16.0934 0 0
2:54 am 02:54 Mostly Clear 71 21.7 63 17.2 76 76 Calm 29.93 1014 10 16.0934 0 0
3:54 am 03:54 Clear 67 19.4 62 16.7 84 84 Calm 29.91 1013 10 16.0934 0 0
4:54 am 04:54 Clear 66 18.9 62 16.7 87 87 Calm 29.91 1013 10 16.0934 0 0
5:54 am 05:54 Clear 63 17.2 61 16.1 93 93 S 3 6 29.91 1013 10 16.0934 0 0
6:54 am 06:54 Sunny 64 17.8 62 16.7 93 93 S 5 7 29.91 1013 8 12.87472 0 0
7:54 am 07:54 Sunny 71 21.7 65 18.3 81 81 Calm 29.9 1013 10 16.0934 0 0
8:54 am 08:54 Sunny 78 25.6 66 18.9 67 67 WNW 5 7 29.91 1013 10 16.0934 0 0
9:54 am 09:54 Sunny 83 28.3 65 18.3 55 55 VRB 3 6 29.89 1012 10 16.0934 0 0
10:54 am 10:54 Sunny 86 30 64 17.8 48 48 W 5 7 29.88 1012 10 16.0934 0 0
11:54 am 11:54 Sunny 88 31.1 64 17.8 45 45 N 3 6 29.87 1012 10 16.0934 0 0
12:54 pm 12:54 Sunny 89 31.7 61 16.1 39 39 NW 5 7 29.87 1012 10 16.0934 0 0
1:54 pm 13:54 Sunny 89 31.7 60 15.6 38 38 VRB 3 6 29.85 1011 10 16.0934 0 0
2:20 pm 14:20 Sunny with Thunderstorms 91 32.8 60 15.6 35 35 NNE 13 20 29.8 1009 10 16.0934 0 0
2:40 pm 14:40 Mostly Cloudy with Thunderstorms 83 28.3 62 16.7 49 49 N 22 35 29.83 1010 10 16.0934 0 0
2:51 pm 14:51 Cloudy with Light Rain 77 25 61 16 57 57 N 17 28 29.83 1010 9 14.48406 0 0.0254
2:54 pm 14:54 Cloudy with Light Rain 76 24.4 60 15.6 58 58 N 16 26 29.85 1011 8 12.87472 0 0.0254
3:54 pm 15:54 Mostly Sunny 88 31.1 60 15.6 39 39 Calm 29.82 1010 10 16.0934 0 0.0254
4:54 pm 16:54 Sunny 89 31.7 59 15 36 36 SE 5 7 29.8 1009 10 16.0934 0 0
5:54 pm 17:54 Sunny 91 32.8 61 16.1 37 37 VRB 3 6 29.79 1009 10 16.0934 0 0
6:54 pm 18:54 Sunny 89 31.7 57 13.9 34 34 Calm 29.78 1009 10 16.0934 0 0
7:54 pm 19:54 Sunny 86 30 60 15.6 42 42 S 3 6 29.78 1009 10 16.0934 0 0
8:54 pm 20:54 Sunny 81 27.2 61 16.1 51 51 Calm 29.79 1009 10 16.0934 0 0
9:54 pm 21:54 Clear 80 26.7 60 15.6 51 51 S 5 7 29.8 1009 10 16.0934 0 0
10:54 pm 22:54 Clear 73 22.8 63 17.2 71 71 Calm 29.81 1010 10 16.0934 0 0
11:54 pm 23:54 Clear 70 21.1 65 18.3 84 84 NNE 3 6 29.82 1010 10 16.0934 0 0

Powered by AerisWeather